Weather History for Racine, WI

Change the Weather History Date:

Thursday, January 17, 2013

  Actual Average Record
Temperature  
Mean Temperature 24 °F -  
Max Temperature 30 °F 28 °F 53 °F (1990)
Min Temperature 15 °F 12 °F -21 °F (1982)
Degree Days  
Heating Degree Days 42    
Moisture  
Dew Point 8 °F    
Average Humidity 56    
Maximum Humidity 74    
Minimum Humidity 38    
Precipitation  
Precipitation 0.00 in - - ()
Sea Level Pressure  
Sea Level Pressure 30.33 in    
Wind  
Wind Speed 8 mph (WNW)    
Max Wind Speed 16 mph    
Max Gust Speed 22 mph    
Visibility 10 miles    
Events      
Averages and records for this station are not official NWS values.
T = Trace of Precipitation, MM = Missing Value Source: NWS Daily Summary

Daily Weather History Graph

Daily Weather History Graph

Search for Another Location

Airport:

Trip Planner

Search our weather history database for the weather conditions in past years. The results will help you decide how hot, cold, wet, or windy it might be!

Date:

Astronomy

Jan. 17, 2013 Rise Set
Actual Time 7:17 AM CST 4:45 PM CST
Civil Twilight 6:46 AM CST 5:16 PM CST
Nautical Twilight 6:11 AM CST 5:51 PM CST
Astronomical Twilight 5:38 AM CST 6:25 PM CST
Moon 10:14 AM CST (1/17) 11:47 PM CST (1/17)
Length of Visible Light 10h 29m
Length of Day
9h 27m
Waxing Crescent, 38% of the Moon is Illuminated
Jan 17
Waxing Crescent
Jan 18
First Quarter
Jan 26
Full
Feb 3
Last Quarter
Feb 10
New

Hourly Weather History & Observations

Time (CST) Temp. Windchill Dew Point Humidity Pressure Visibility Wind Dir Wind Speed Gust Speed Precip Events Conditions
12:53 AM 30.0 °F 22.4 °F 19.9 °F 66% 30.09 in 10.0 mi NW 8.1 mph 17.3 mph N/A   Clear
1:53 AM 28.0 °F 20.8 °F 16.0 °F 61% 30.14 in 10.0 mi NW 6.9 mph - N/A   Clear
3:53 AM 24.1 °F 16.0 °F 12.9 °F 62% 30.21 in 10.0 mi NNW 6.9 mph - N/A   Clear
4:53 AM 23.0 °F 13.9 °F 12.0 °F 63% 30.23 in 10.0 mi NW 8.1 mph - N/A   Clear
5:53 AM 21.0 °F 13.4 °F 10.0 °F 63% 30.26 in 10.0 mi WNW 5.8 mph - N/A   Clear
6:53 AM 19.0 °F 10.0 °F 8.1 °F 62% 30.29 in 10.0 mi NW 6.9 mph - N/A   Clear
7:53 AM 19.0 °F 9.0 °F 8.1 °F 62% 30.32 in 10.0 mi WNW 8.1 mph - N/A   Clear
8:53 AM 19.9 °F 7.9 °F 5.0 °F 52% 30.34 in 10.0 mi NW 11.5 mph 19.6 mph N/A   Clear
9:53 AM 21.0 °F 7.6 °F 1.9 °F 44% 30.35 in 10.0 mi WNW 15.0 mph - N/A   Clear
10:53 AM 23.0 °F 10.1 °F 3.0 °F 42% 30.35 in 10.0 mi NW 15.0 mph 19.6 mph N/A   Clear
11:53 AM 24.1 °F 13.1 °F 3.0 °F 40% 30.35 in 10.0 mi NW 11.5 mph 21.9 mph N/A   Clear
12:53 PM 24.1 °F 11.0 °F 1.9 °F 38% 30.35 in 10.0 mi NW 16.1 mph 21.9 mph N/A   Clear
1:53 PM 24.1 °F 14.4 °F 3.9 °F 42% 30.35 in 10.0 mi NW 9.2 mph - N/A   Clear
2:53 PM 24.1 °F 16.0 °F 3.9 °F 42% 30.34 in 10.0 mi WNW 6.9 mph - N/A   Clear
3:53 PM 24.1 °F 14.4 °F 5.0 °F 44% 30.34 in 10.0 mi WNW 9.2 mph - N/A   Clear
4:53 PM 23.0 °F 14.7 °F 7.0 °F 50% 30.36 in 10.0 mi West 6.9 mph - N/A   Clear
5:53 PM 21.0 °F 16.2 °F 7.0 °F 55% 30.38 in 10.0 mi West 3.5 mph - N/A   Clear
6:53 PM 19.9 °F 14.9 °F 8.1 °F 60% 30.40 in 10.0 mi WSW 3.5 mph - N/A   Clear
7:53 PM 18.0 °F - 8.1 °F 65% 30.40 in 10.0 mi Calm Calm - N/A   Clear
8:53 PM 17.1 °F - 8.1 °F 68% 30.42 in 10.0 mi Calm Calm - N/A   Clear
9:53 PM 17.1 °F - 8.1 °F 68% 30.42 in 10.0 mi Calm Calm - N/A   Clear
10:53 PM 17.1 °F 11.7 °F 8.1 °F 68% 30.41 in 10.0 mi WNW 3.5 mph - N/A   Clear
11:53 PM 15.1 °F 7.7 °F 8.1 °F 74% 30.43 in 10.0 mi West 4.6 mph - N/A   Clear